Tracking 29892 objects as of 21-Nov-2024
HD Live streaming from Space Station
objects crossing your sky now

SNIPE-A

Track SNIPE-A now!
10-day predictions
SNIPE-A is classified as:


NORAD ID: 56749
Int'l Code: 2023-072G
Perigee: 501.9 km
Apogee: 510.5 km
Inclination: 97.5 °
Period: 94.6 minutes
Semi major axis: 6877 km
RCS: Unknown
Launch date: May 25, 2023
Source: South Korea (SKOR)
Launch site: Naro Space Center, South Korea (NSC)

Uplink (MHz):
Downlink (MHz): 435.450
Beacon (MHz):
Mode: 4800bps MSK_AX.100_Mode 5
Call sign:
Status: Active

Your satellite tracking list
Your tracking list is empty




NASA's NSSDC Master Catalog

Two Line Element Set (TLE):
1 56749U 23072G   24326.12053222  .00019598  00000-0  85327-3 0  9999
2 56749  97.5241 151.7392 0006288 227.4563 132.6142 15.22246132 82526
Source of the keplerian elements: AFSPC